FENGYUN 1C DEB

Satellite information

Favourite Embed

Satellite Type and Status

DEBRISIN ORBIT

Key statistics

Satellite FENGYUN 1C DEB at a glance.

Uptime

9556

Days in orbit

Revolutions

≈ 14.0

Per day

Orbit

SSO

Sun Synchronous Orbit

Inclination

98.6

Latest

Satellite identification and parameters

Extended collection of information and parameters for FENGYUN 1C DEB.

Object identification

Identified? True

Debris? True

Object name: FENGYUN 1C DEB

International designator: 1999-025DCV

Object number (NORAD): 33612

Object ID (CCSDS): 33612

Country: PEOPLES REPUBLIC OF CHINA (PRC)

Current information (Y/N): Y

RCS size: SMALL

Orbital parameters

Period: 102.626 minutes

Inclination: 98.5856 deg

SMA: 7261.044 km

Apoapsis: 962.683 km

Periapsis: 803.135 km

RAAN: 164.8266 deg

Eccentricy: 0.0109866

Argument of periapsis: 198.0932 deg

Mean anomaly: 161.6312 deg

Mean motion: 14.03150221 rev/day

Mean motion (dot): 0.00001156 rev/day2

B* drag term: 0.0007289 1/REarth

Two-line elements (TLE)

Creation date: July 6, 2025, 4:10 a.m.

Reference frame: TEME

Reference center: EARTH

Epoch: July 5, 2025, 9:16 p.m. UTC

TLE line 0: 0 FENGYUN 1C DEB

TLE line 1: 1 33612U 99025DCV 25186.88645443 .00001156 00000-0 72890-3 0 9996

TLE line 2: 2 33612 98.5856 164.8266 0109866 198.0932 161.6312 14.03150221544319

Live tracking on map

Real-time ground track for satellite FENGYUN 1C DEB.

In-orbit conjunctions

A list of the most updated potential collisions computed for object FENGYUN 1C DEB.

Target Orbit TCA Probability of collision Miss distance Type
COSMOS 970 DEB LEO 2025-05-31 14:23:48 0.0001001191 40.0 (m) DEBRIS
CZ-6A DEB LEO 2024-11-29 03:54:27 0.0001518916 598.0 (m) DEBRIS
DMSP 5D-2 F8 DEB SSO 2024-09-08 20:23:44 0.0001227761 168.0 (m) DEBRIS
COSMOS 1513 LEO 2024-08-01 21:19:58 0.0004360755 207.0 (m) PAYLOAD

Associated space launch

Chinese polar orbiting meteorological satellite

FENGYUN 1C DEB was lifted into orbit during the mission ‘Long March 4B | Feng Yun 1C’, on board a Long March 4B space rocket.

The launch took place on May 10, 1999, 1:33 a.m. from Launch Complex 7.

For more information about the launch, click the button.

Launch to space Long March 4B | Feng Yun 1C
Long March 4B | Feng Yun 1C

Agency: N/A

Status: Launch Successful

Launch date: May 10, 1999, 1:33 a.m. UTC

Rocket: Long March 4B

Launch pad: Launch Complex 7

Location: Taiyuan Satellite Launch Center, People's Republic of China

...

Latest news about this satellite

There are no fresh news available about this satellite. Check back as we update our databases every day.


Newsletter sign-up

Weekly statistics, charts and insights to help you stay on top of the space industry.